Flag for Germany Weather past 2 weeks in Forchheim, Bavaria, Germany

Now
48 °F

Overcast.


Feels Like: 46 °F
Forecast: 38 / 50 °F
Wind: 6 mph from Northwest

Location: Bamberg

Current Time: Oct 23, 2014 at 3:03:20 AM

Latest Report: Oct 23, 2014 at 2:00 AM


Visibility: 9 mi

Pressure: 30.03 "Hg

Humidity: 85%

Dew point: 44 °F

Location of ForchheimLocation

Historic Weather in Forchheim — Graph

°F

Forchheim temperature yesterday

Maximum temperature yesterday: 48 °F (at 12:00 AM)
Minimum temperature yesterday: 43 °F (at 8:00 AM)
Average temperature yesterday: 45 °F

Past Weeks' High & Low Weather Summary

 TemperatureHumidityPressure
High78 °F (Oct 9, 3:00 PM)100% (Oct 8, 5:00 AM)30.26 "Hg (Oct 8, 5:00 AM)
Low41 °F (Oct 21, 6:00 AM)48% (Oct 9, 3:00 PM)29.58 "Hg (Oct 21, 8:00 PM)
Average56 °F92%29.93 "Hg
* Reported Oct 8 2:00 AM — Oct 23 2:00 AM, Forchheim, Weather by CustomWeather, © 2014

Note: Actual official high and low records may vary slightly from our data, if they occured in-between our weather recording intervals... More about our weather records

Advertising

Forchheim weather history for previous 24 hours

 ConditionsComfort  
Time TempWeatherWind HumidityBarometerVisibility
2:00 AM
Oct 23
48 °FOvercast.6 mph85%30.03 "Hg9 mi
1:00 AM48 °FOvercast.7 mph85%30.02 "Hg9 mi
12:00 AM48 °FOvercast.7 mph87%30.00 "Hg10 mi
11:00 PM
Oct 22
47 °FOvercast.7 mph88%29.98 "Hg9 mi
10:00 PM47 °FOvercast.6 mph91%29.96 "Hg9 mi
9:00 PM46 °FLight freezing rain. Passing clouds.5 mph97%29.94 "Hg4 mi
8:00 PM45 °FLight rain. Passing clouds.5 mph96%29.93 "Hg4 mi
7:00 PM45 °FLight rain. Passing clouds.5 mph94%29.92 "Hg8 mi
6:00 PM45 °FLight rain. Partly sunny.6 mph92%29.91 "Hg7 mi
5:00 PM44 °FLight rain. Overcast.5 mph93%29.90 "Hg4 mi
4:00 PM44 °FRain. Scattered clouds.5 mph93%29.92 "Hg2 mi
3:00 PM45 °FLight rain. Overcast.5 mph89%29.92 "Hg16 mi
2:00 PM46 °FDrizzle. Overcast.6 mph85%29.92 "Hg22 mi
1:00 PM46 °FOvercast.6 mph83%29.93 "Hg22 mi
12:00 PM45 °FOvercast.5 mph87%29.93 "Hg19 mi
11:00 AM45 °FOvercast.5 mph85%29.93 "Hg18 mi
10:00 AM44 °FLight freezing rain. Overcast.5 mph89%29.93 "Hg7 mi
9:00 AM43 °FOvercast.5 mph92%29.91 "Hg17 mi
8:00 AM43 °FLight rain. Partly sunny.3 mph93%29.88 "Hg6 mi
7:00 AM43 °FLight rain. Fog.5 mph91%29.85 "Hg4 mi
6:00 AM46 °FLight rain. Overcast.5 mph81%29.83 "Hg18 mi
5:00 AM46 °FOvercast.3 mph81%29.84 "Hg34 mi
4:00 AM46 °FOvercast.5 mph78%29.85 "Hg31 mi
3:00 AM46 °FOvercast.5 mph80%29.86 "Hg34 mi
Weather by CustomWeather, © 2014

See weather overviewHow to use our weather pages